www.pogodaiklimat.ru

Погода и климат >> Архив погоды >> Кувейт >> Mitribah


ПОГОДА в Mitribah

  • Прогноз погоды в Mitribah
  • Монитор погоды в Mitribah
  • Климат города

АРХИВ ПОГОДЫ в Mitribah

Время (UTC), дата Ветер
(напр.,м/с)
 
Видим.   Явления Облачность Т
(С)
Тd
(С)
f
(%)
Тe
(С)
Тes
(С)
Комфортность P
(гПа)
Po
(гПа)
Тmin
(С)
Tmax
(С)
R
(мм)
R24
(мм)
S
(см)
15 16.10 В 2-3
{4}
7000 м дымка н/о +33.7 +8.6 21 +32 +32 жарко 1012.4 1012.0
18 16.10 ЮВ 4-4
{4}
8000 м дымка н/о +29.3 +9.1 28 +29 +29 жарко 1013.4 1013.0
21 16.10 Ю 4-5
{6}
6000 м дымка н/о +27.1 +12.4 40 +29 +29 жарко 1013.0 1013.0 +23.0 +38.8
00 17.10 Ю 4-4
{6}
6000 м дымка н/о +24.2 +13.1 50 +26 +26 жарко 1012.6 1013.0
03 17.10 Ю 4-5
{5}
6000 м дымка н/о +22.8 +14.8 61 +27 +27 душно 1013.3 1013.0
06 17.10 Ю 7-9
{9}
6000 м дымка н/о +31.3 +14.0 35 +33 +33 жарко 1014.1 1014.0
09 17.10 Ю 3-5
{8}
8000 м дымка н/о +37.1 +8.8 18 +35 +35 очень
жарко
1012.2 1012.0
12 17.10 С 1-2
{8}
11 км н/о +38.3 +7.2 15 +36 +36 очень
жарко
1010.4 1010.0
15 17.10 В 1-1
{2}
10 км н/о +33.7 +6.4 18 +32 +32 жарко 1010.9 1011.0
18 17.10 ЮВ 5-5
{6}
8000 м дымка н/о +29.3 +13.2 37 +31 +31 жарко 1011.9 1012.0
21 17.10 Ю 7-9
{9}
8000 м дымка н/о +27.7 +16.6 51 +31 +31 душно 1011.9 1012.0 +22.3 +39.7
00 18.10 Ю 5-7
{9}
10 км н/о +26.1 +13.7 46 +28 +28 жарко 1011.6 1012.0
03 18.10 Ю 4-5
{6}
10 км н/о +23.4 +13.5 54 +27 +27 душно 1012.0 1012.0
06 18.10 З 7-11
{11}
9000 м дымка н/о +31.9 +10.7 27 +32 +32 жарко 1013.5 1014.0
09 18.10 Ю 3-6
{10}
14 км н/о +35.7 +10.6 22 +35 +35 очень
жарко
1011.9 1012.0
12 18.10 СЗ 1-3
{10}
15 км н/о +37.8 +9.1 18 +36 +36 очень
жарко
1010.0 1010.0
15 18.10 СВ 5-5
{7}
8000 м дымка н/о +32.6 +9.3 24 +32 +32 жарко 1010.5 1011.0
18 18.10 ЮВ 4-5
{7}
8000 м дымка н/о +28.5 +17.4 51 +33 +33 очень
душно
1011.9 1012.0
21 18.10 ЮВ 5-5
{6}
8000 м дымка н/о +26.5 +17.5 58 +31 +31 душно 1012.4 1012.0 +22.9 +38.5
00 19.10 Ю 3-5
{6}
7000 м дымка н/о +24.6 +18.4 68 +29 +29 душно 1012.2 1012.0
03 19.10 Ю 3-4
{12}
3200 м дымка н/о +23.6 +21.3 87 +30 +30 очень
душно
1013.2 1013.0
06 19.10 СЗ 4-5
{12}
8000 м дымка н/о +30.2 +17.0 45 +34 +34 очень
душно
1015.5 1016.0
09 19.10 СВ 7-9
{10}
10 км н/о +35.6 +9.9 21 +34 +34 очень
жарко
1013.5 1014.0
12 19.10 СВ 7-9
{11}
13 км н/о +35.9 +9.4 20 +35 +35 очень
жарко
1012.0 1012.0
15 19.10 ЮВ 4-7
{11}
7000 м дымка н/о +30.5 +19.4 52 +36 +36 очень
душно
1012.8 1013.0
18 19.10 ЮВ 3-4
{11}
8000 м дымка н/о +27.5 +16.7 52 +31 +31 душно 1014.2 1014.0
21 19.10 ЮВ 5-6
{6}
6000 м дымка н/о +25.0 +18.2 66 +29 +29 душно 1014.3 1014.0 +23.3 +36.5
00 20.10 Ю 3-4
{7}
5000 м дымка н/о +22.4 +17.8 75 +27 +27 душно 1013.5 1014.0
03 20.10 Ю 4-5
{6}
2400 м дымка н/о +21.3 +16.7 75 +25 +25 комфорт 1014.7 1015.0
06 20.10 Ю 4-6
{7}
5000 м дымка н/о +30.2 +14.3 38 +32 +32 жарко 1015.7 1016.0
09 20.10 С 3-6
{8}
5000 м дым н/о +32.3 +14.1 33 +34 +34 душно 1014.5 1015.0
12 20.10 СВ 3-6
{9}
8000 м дым н/о +34.8 +13.1 27 +35 +35 очень
жарко
1012.7 1013.0
15 20.10 В 5-5
{8}
8000 м дымка н/о +31.1 +13.1 33 +32 +32 жарко 1013.1 1013.0
18 20.10 СВ 6-7
{8}
9000 м дымка н/о +27.6 +15.7 48 +31 +31 душно 1014.3 1014.0
21 20.10 В 2-3
{9}
8000 м дымка н/о +25.7 +18.6 65 +31 +31 очень
душно
1013.5 1014.0 +21.2 +35.7
00 21.10 Ю 6-7
{9}
8000 м дымка н/о +25.6 +19.4 69 +31 +31 очень
душно
1013.3 1013.0
03 21.10 ЮВ 6-7
{11}
5000 м дымка н/о +24.6 +20.0 76 +30 +30 очень
душно
1014.0 1014.0
06 21.10 Ю 5-8
{11}
5000 м дымка н/о +30.0 +14.5 39 +32 +32 жарко 1015.4 1015.0
09 21.10 Ю 6-10
{12}
3000 м дым н/о +34.2 +10.6 24 +34 +34 очень
жарко
1013.7 1014.0
12 21.10 ЮВ 7-11
{14}
4700 м дым н/о +34.5 +11.1 24 +34 +34 очень
жарко
1011.8 1012.0
15 21.10 В 7-9
{12}
3000 м дымка н/о +30.4 +18.5 49 +35 +35 очень
душно
1012.5 1013.0
18 21.10 ЮВ 4-7
{12}
2900 м дымка н/о +28.7 +16.1 46 +32 +32 душно 1013.7 1014.0
21 21.10 ЮВ 5-8
{9}
4100 м дымка н/о +27.0 +16.5 53 +31 +31 душно 1014.1 1014.0 +24.5 +35.0
00 22.10 С 13-15
{17}
2300 м слаб. ливневой дождь {туман} н/о +20.9 +19.0 89 +25 +25 комфорт 1015.4 1015.0
03 22.10 СВ 7-8
{14}
12 км {ливн. осадки, дождь} н/о +20.4 +18.0 86 +24 +24 комфорт 1016.5 1017.0
06 22.10 В 10-12
{14}
12 км {ливн. осадки, дождь} н/о +25.2 +17.0 60 +29 +29 душно 1017.9 1018.0
09 22.10 ЮВ 4-9
{14}
10 км н/о +30.9 +17.7 45 +35 +35 очень
душно
1015.8 1016.0
12 22.10 В 3-7
{14}
11 км н/о +30.8 +18.3 47 +35 +35 очень
душно
1014.5 1015.0
15 22.10 В 6-8
{9}
16 км н/о +28.3 +20.1 61 +35 +35 очень
душно
1015.3 1015.0
18 22.10 В 2-3
{9}
17 км н/о +26.3 +20.3 70 +33 +33 очень
душно
1016.3 1016.0
21 22.10 ЮВ 4-5
{5}
13 км н/о +24.7 +19.6 73 +30 +30 очень
душно
1016.0 1016.0 +20.3 +32.1
00 23.10 Ю 2-2
{6}
10 км н/о +23.1 +19.5 80 +30 +30 очень
душно
1016.2 1016.0
03 23.10 В 2-2
{3}
10 км н/о +22.5 +18.5 78 +28 +28 душно 1016.9 1017.0
06 23.10 В 4-5
{5}
12 км н/о +28.2 +19.4 59 +34 +34 очень
душно
1017.4 1017.0
09 23.10 В 4-7
{11}
12 км н/о +30.8 +18.8 49 +36 +36 очень
душно
1016.1 1016.0
12 23.10 Ю 3-5
{11}
14 км н/о +32.5 +17.9 42 +37 +37 очень
душно
1014.6 1015.0

 

Местоположение метеостанции Mitribah (Кувейт): широта 29.82 долгота 47.37 высота над уровнем моря 119 м.

В архиве по умолчанию представлена погода в Mitribah за последнюю неделю. Архивные данные за месяц целиком и за предыдущие месяцы, начиная с января 2011 года, Вы можете получить, выбрав интересующий диапазон дат из раскрывающегося списка и нажав кнопку "Ввод!".


*Определитесь, кто Вы:
робот инопланетянин человек

Внимание! Время в таблицах - всемирное. Для получения местного времени необходимо прибавить поправку, которая в Mitribah равна 3 ч.

Смотрите также архив погоды в соседних городах и на ближайших метеорологических станциях:

Погода в Jal Aliyah (Кувейт) (31 км)
Погода в Abdaly (Кувейт) (43 км)
Погода в Sabriyah (Кувейт) (47 км)
Погода в Jahra (Кувейт) (63 км)
Погода в Abraque Al Habari (Кувейт) (68 км)
Погода в Sulaibiya (Кувейт) (70 км)
Погода в Experimental Farm (Кувейт) (81 км)
Погода в Minagish (Кувейт) (85 км)
Погода в Kuwait City (Кувейт) (85 км)
Погода в Basrah Airport (Ирак) (87 км)

Пояснения к столбцам:

Ветер - указаны скорость ветра в м/с - средняя за 10 мин, порывы в срок и между сроками (в фигурных скобках) и направление, откуда дует ветер: С - северный, СВ - северо-восточный, В - восточный, ЮВ - юго-восточный, Ю - южный, ЮЗ - юго-западный, З - западный, СЗ - северо-западный.
Видимость - горизонтальная дальность видимости в метрах или километрах. При видимости от 1 до 10 км при отсутствии осадков обычно наблюдается дымка, при ухудшении видимости до 1 км и менее - туман. В сухую погоду видимость может ухудшаться дымом, пылью или мглою.
Явления - указаны атмосферные явления, наблюдавшиеся в срок или в последний час перед сроком; фигурными скобками обозначены явления, наблюдавшиеся между сроками (за 1-3 часа до срока); квадратными скобками обозначены град или гололедные отложения с указанием их диаметра в мм.
Облачность - указаны через наклонную черту общая и нижняя облачность в баллах и высота нижней границы облаков в метрах; квадратными скобками обозначены формы облаков: Ci - перистые, Cs - перисто-слоистые, Cc - перисто-кучевые, Ac - высококучевые, As - высокослоистые, Sc - слоисто-кучевые, Ns - слоисто-дождевые, Cu - кучевые, Cb - кучево-дождевые. Подробнее классификацию облаков см. в Атласе облаков (PDF).
T - Температура воздуха - температура, измеренная на высоте 2 м над землей.
Td - Температура точки росы - температура, при понижении до которой содержащийся в воздухе водяной пар достигнет насыщения.
f - Относительная влажность воздуха - влажноcть воздуха, измеренная на высоте 2 м над землей.
Te - Эффективная температура - температура, которую ощущает одетый по сезону человек в тени. Характеристика душности погоды. При расчете учитывается влияние влажности воздуха и скорости ветра на теплоощущения человека.
Tes - Эффективная температура на солнце - температура, которую ощущает человек, с поправкой на солнечный нагрев. Характеристика знойности погоды. Зависит от высоты солнца над горизонтом, облачности и скорости ветра. Ночью, в пасмурную погоду, а также при ветре 12 м/с и более поправка равна нулю.
P - Атмосферное давление - приведенное к уровню моря атмосферное давление.
Po - Атмосферное давление - измеренное на уровне метеостанции атмосферное давление.
Tmin - Минимальная температура - минимум температуры воздуха на высоте 2 м над землей.
Tmax - Максимальная температура - максимум температуры воздуха на высоте 2 м над землей.
R - Количество осадков - Количество выпавших осадков за период времени, мм. При наведении курсора мыши на число - период времени, за который выпало указанное количество осадков.
R24 - Количество осадков - Количество выпавших осадков за 24 часа, мм.
S - Снежный покров - Высота снежного покрова, см. При наведении курсора мыши на число - состояние снежного покрова и степень покрытия местности в баллах.